星链-1626 (STARLINK-1626 )

导读

STARLINK-1626是美国太空探索技术公司(SpaceX)星链计划的卫星,于2020年8月18日发射升空,属于星链低轨互联网星座组网卫星。它运行在近地轨道,旨在为全球提供高速宽带互联网服务,尤其为偏远、网络基础设施薄弱区域提供网络覆盖,也为星链系统的全球组网布局补充了节点,推进了星链星座的服务覆盖能力建设。

基本信息
目录编号:
46167
目录名称:
STARLINK-1626
国际标识:
2020-057BC
轨道中心:
EARTH
卫星名称:
星链-1626
卫星全名:
星链-1626 (STARLINK-1626 )
卫星状态:
在轨 (已飞行2130 天)
发射日期:
2020-08-18 UTC
国别 :
美国 (US)
星等 :
--
轨道信息
数据来源 国际轨道数据 AOE轨道数据
星历时间 2026-06-18T16:47:52+0800
11小时前
查看轨道信息
2026-06-16T06:00:00+0800
2天前
查看轨道信息
半长轴 6715.014km 6716.44km
偏心率 0.0001611 0.000186
轨道倾角 53.039° 53.038°
近地点辐角 93.138° 71.493°
升交点赤经 159.780° 172.035°
平近点角 266.982° 47.617°
近地点 335.795km 337.053km
远地点 337.959km 339.553km
周期 91.270分钟 91.299分钟
每日圈数 15.777292 15.772268
详细信息
固有亮度:
5
最大亮度:
2.5
卫星平台:
Starlink V1.0
覆盖范围:
全球
运营商:
太空探索技术公司
运营商所在国:
美国
制造商(研发单位):
太空探索技术公司
制造商所在国:
美国
使用方式:
暂无
卫星简介
星链(Starlink)计划是由太空探索技术公司(SpaceX)提出的一个巨型低轨卫星互联网星座项目,计划在2019年至2024年间在太空搭建由约1.2万颗卫星组成的“星链”网络,其中1584颗将部署在地球上空550千米处的近地轨道,并从2020年开始工作。该卫星仍在工作。
2D轨道图
3D轨道图
轨道高度分析图
轨道倾角分析图
轨道综合分析图
查看轨道综合分析图